KAC1015 OKKK-OMDB

Flight info

Callsign KAC1015
Flight time N/A
Altitude 39000
Route SESRU M677 VUTEB
Aircraft A339/H-SADE1E2E3GHIJ3J5M1P2RWXY/LB2D1

Departure

Time 2026-04-29 21:39
Airport Kuwait International Airport (OKKK)

Arrival

Time N/A
Airport Dubai International Airport (OMDB)
Time Latitude Longitude Altitude Speed Heading
2026-04-29 21:09 29.23688 47.97028 176 ft 0 kts 53°
2026-04-29 21:18 29.23688 47.97027 175 ft 0 kts 53°
2026-04-29 21:18 29.23680 47.97013 175 ft 2 kts 46°
2026-04-29 21:18 29.23665 47.96997 175 ft 2 kts 46°
2026-04-29 21:18 29.23652 47.96982 175 ft 3 kts 54°
2026-04-29 21:19 29.23641 47.96965 175 ft 3 kts 75°
2026-04-29 21:19 29.23636 47.96947 175 ft 3 kts 104°
2026-04-29 21:19 29.23638 47.96931 175 ft 1 kts 131°
2026-04-29 21:19 29.23640 47.96929 175 ft 0 kts 132°
2026-04-29 21:21 29.21311 47.97609 172 ft 0 kts 335°
2026-04-29 21:38 29.21389 47.97567 172 ft 48 kts 334°
2026-04-29 21:38 29.21998 47.97233 171 ft 142 kts 335°
2026-04-29 21:39 29.23089 47.96654 228 ft 202 kts 334°
2026-04-29 21:39 29.24449 47.95948 828 ft 217 kts 334°
2026-04-29 21:39 29.25844 47.95250 1840 ft 217 kts 335°
2026-04-29 21:39 29.27226 47.94549 2739 ft 225 kts 334°
2026-04-29 21:40 29.28698 47.93771 3223 ft 240 kts 333°
2026-04-29 21:40 29.30254 47.92912 3654 ft 254 kts 334°
2026-04-29 21:40 29.31863 47.92026 4289 ft 260 kts 334°
2026-04-29 21:40 29.33537 47.91199 4961 ft 265 kts 343°
2026-04-29 21:41 29.35375 47.91074 5667 ft 270 kts
2026-04-29 21:41 29.37135 47.91853 6348 ft 277 kts 32°
2026-04-29 21:41 29.38505 47.93434 6997 ft 285 kts 56°
2026-04-29 21:41 29.39397 47.95483 7672 ft 291 kts 66°
2026-04-29 21:42 29.40165 47.97656 8309 ft 296 kts 66°
2026-04-29 21:42 29.40987 47.99835 8969 ft 299 kts 64°
2026-04-29 21:42 29.41583 48.01272 9366 ft 303 kts 62°
2026-04-29 21:42 29.42894 48.04169 10185 ft 310 kts 61°
2026-04-29 21:43 29.43689 48.06536 10429 ft 329 kts 79°
2026-04-29 21:43 29.43726 48.09219 10619 ft 347 kts 101°
2026-04-29 21:43 29.42945 48.11891 10963 ft 357 kts 117°
2026-04-29 21:43 29.41808 48.14435 11579 ft 360 kts 120°
2026-04-29 21:44 29.40679 48.17005 12275 ft 362 kts 118°
2026-04-29 21:44 29.39635 48.19646 12918 ft 366 kts 116°
2026-04-29 21:44 29.38653 48.22359 13512 ft 371 kts 115°
2026-04-29 21:44 29.37698 48.25132 14104 ft 376 kts 114°
2026-04-29 21:45 29.36749 48.27953 14700 ft 380 kts 114°
2026-04-29 21:45 29.35793 48.30804 15268 ft 385 kts 114°
2026-04-29 21:45 29.34819 48.33682 15854 ft 388 kts 114°
2026-04-29 21:45 29.33838 48.36585 16417 ft 392 kts 115°
2026-04-29 21:46 29.32853 48.39482 16932 ft 397 kts 115°
2026-04-29 21:46 29.31844 48.42438 17475 ft 401 kts 115°
2026-04-29 21:46 29.30822 48.45425 17991 ft 405 kts 115°
2026-04-29 21:46 29.29790 48.48444 18543 ft 408 kts 115°
2026-04-29 21:47 29.28748 48.51493 19045 ft 412 kts 116°
2026-04-29 21:47 29.27698 48.54562 19590 ft 416 kts 116°
2026-04-29 21:47 29.26642 48.57655 20155 ft 418 kts 116°
2026-04-29 21:47 29.25571 48.60765 20644 ft 422 kts 117°
2026-04-29 21:48 29.24498 48.63906 21186 ft 425 kts 117°
2026-04-29 21:48 29.23413 48.67063 21703 ft 428 kts 117°
2026-04-29 21:48 29.22313 48.70248 22202 ft 432 kts 117°
2026-04-29 21:48 29.21209 48.73459 22715 ft 435 kts 117°
2026-04-29 21:49 29.20091 48.76689 23220 ft 438 kts 118°
2026-04-29 21:49 29.18968 48.79931 23745 ft 441 kts 118°
2026-04-29 21:49 29.17836 48.83222 24187 ft 445 kts 118°
2026-04-29 21:49 29.16696 48.86525 24635 ft 449 kts 118°
2026-04-29 21:50 29.15365 48.89745 25025 ft 445 kts 128°
2026-04-29 21:50 29.13610 48.92550 25446 ft 438 kts 139°
2026-04-29 21:50 29.11452 48.94966 25869 ft 430 kts 148°
2026-04-29 21:50 29.09134 48.97157 26265 ft 434 kts 149°
2026-04-29 21:51 29.06803 48.99387 26655 ft 438 kts 149°
2026-04-29 21:51 29.04463 49.01651 27075 ft 441 kts 149°
2026-04-29 21:51 28.99764 49.06233 27806 ft 449 kts 149°
2026-04-29 21:52 28.97374 49.08564 28189 ft 451 kts 149°
2026-04-29 21:52 28.94967 49.10903 28488 ft 455 kts 149°
2026-04-29 21:52 28.92547 49.13253 28852 ft 458 kts 149°
2026-04-29 21:52 28.90113 49.15615 29107 ft 463 kts 149°
2026-04-29 21:53 28.87651 49.18003 29429 ft 465 kts 150°
2026-04-29 21:53 28.85189 49.20443 29759 ft 470 kts 148°
2026-04-29 21:53 28.82752 49.22956 30048 ft 475 kts 148°
2026-04-29 21:53 28.81127 49.24649 30277 ft 477 kts 148°
2026-04-29 21:54 28.78670 49.27202 30595 ft 479 kts 148°
2026-04-29 21:54 28.75355 49.30623 31034 ft 482 kts 148°
2026-04-29 21:54 28.73698 49.32322 31213 ft 484 kts 148°
2026-04-29 21:54 28.71178 49.34902 31457 ft 488 kts 148°
2026-04-29 21:55 28.68651 49.37487 31771 ft 490 kts 149°
2026-04-29 21:55 28.65276 49.40937 32152 ft 493 kts 148°
2026-04-29 21:55 28.61107 49.45591 32457 ft 510 kts 140°
2026-04-29 21:56 28.58939 49.48838 32692 ft 522 kts 133°
2026-04-29 21:56 28.57056 49.52354 32865 ft 529 kts 129°
2026-04-29 21:56 28.55183 49.55959 33019 ft 530 kts 130°
2026-04-29 21:56 28.53284 49.59574 33131 ft 533 kts 130°
2026-04-29 21:57 28.51373 49.63189 33288 ft 533 kts 130°
2026-04-29 21:57 28.49453 49.66788 33404 ft 533 kts 130°
2026-04-29 21:57 28.47526 49.70388 33568 ft 533 kts 130°
2026-04-29 21:57 28.45595 49.73991 33703 ft 533 kts 130°
2026-04-29 21:58 28.43625 49.77546 33841 ft 527 kts 134°
2026-04-29 21:58 28.41341 49.80737 33925 ft 515 kts 143°
2026-04-29 21:58 28.38743 49.83467 34055 ft 503 kts 151°
2026-04-29 21:58 28.35924 49.85741 34221 ft 493 kts 157°
2026-04-29 21:59 28.33040 49.87874 34338 ft 494 kts 157°
2026-04-29 21:59 28.30210 49.90001 34479 ft 494 kts 156°
2026-04-29 21:59 28.27357 49.92162 34675 ft 492 kts 156°
2026-04-29 21:59 28.24515 49.94321 34808 ft 492 kts 156°
2026-04-29 22:00 28.21674 49.96480 34953 ft 491 kts 156°
2026-04-29 22:00 28.18828 49.98642 35091 ft 491 kts 156°
2026-04-29 22:00 28.15991 50.00792 35269 ft 490 kts 156°
2026-04-29 22:00 28.13161 50.02937 35451 ft 489 kts 156°
2026-04-29 22:01 28.10334 50.05077 35590 ft 488 kts 156°
2026-04-29 22:01 28.07511 50.07213 35710 ft 488 kts 156°
2026-04-29 22:01 28.04690 50.09350 35854 ft 488 kts 156°
2026-04-29 22:01 28.01867 50.11487 36063 ft 486 kts 156°
2026-04-29 22:02 27.99097 50.13580 36251 ft 485 kts 156°
2026-04-29 22:02 27.96281 50.15706 36411 ft 485 kts 156°
2026-04-29 22:02 27.93477 50.17819 36547 ft 485 kts 156°
2026-04-29 22:02 27.90669 50.19930 36867 ft 481 kts 156°
2026-04-29 22:03 27.87906 50.22017 37291 ft 475 kts 156°
2026-04-29 22:03 27.85164 50.24087 37577 ft 472 kts 156°
2026-04-29 22:03 27.82424 50.26148 37787 ft 471 kts 156°
2026-04-29 22:03 27.79724 50.28176 37953 ft 471 kts 156°
2026-04-29 22:04 27.76967 50.30256 38159 ft 471 kts 156°
2026-04-29 22:04 27.74238 50.32309 38351 ft 470 kts 156°
2026-04-29 22:04 27.71551 50.34323 38520 ft 470 kts 156°
2026-04-29 22:04 27.68827 50.36366 38680 ft 470 kts 156°
2026-04-29 22:05 27.66100 50.38408 38851 ft 469 kts 156°
2026-04-29 22:05 27.63389 50.40439 38873 ft 467 kts 156°
2026-04-29 22:06 27.55327 50.46590 38865 ft 467 kts 155°
2026-04-29 22:06 27.49958 50.50712 38859 ft 467 kts 155°
2026-04-29 22:07 27.44577 50.54832 38863 ft 467 kts 155°
2026-04-29 22:07 27.39199 50.58937 38858 ft 467 kts 155°
2026-04-29 22:08 27.33824 50.63043 38838 ft 468 kts 155°
2026-04-29 22:08 27.28456 50.67138 38858 ft 467 kts 154°
2026-04-29 22:09 27.23062 50.71252 38858 ft 467 kts 154°
2026-04-29 22:09 27.17710 50.75330 38848 ft 467 kts 154°
2026-04-29 22:10 27.12596 50.79979 38843 ft 479 kts 144°
2026-04-29 22:10 27.07902 50.85348 38844 ft 481 kts 143°
2026-04-29 22:11 27.03201 50.90690 38844 ft 481 kts 143°
2026-04-29 22:11 26.98852 50.96491 38842 ft 493 kts 133°
2026-04-29 22:12 26.95204 51.03044 38842 ft 497 kts 129°
2026-04-29 22:12 26.91565 51.09650 38844 ft 497 kts 129°
2026-04-29 22:13 26.88039 51.16268 38844 ft 502 kts 124°
2026-04-29 22:13 26.85387 51.23578 38844 ft 512 kts 114°
2026-04-29 22:14 26.83175 51.31161 38843 ft 511 kts 115°
2026-04-29 22:14 26.80918 51.38713 38850 ft 511 kts 115°
2026-04-29 22:15 26.78643 51.46244 38848 ft 511 kts 115°
2026-04-29 22:15 26.76372 51.53788 38851 ft 511 kts 115°
2026-04-29 22:16 26.74108 51.61271 38866 ft 511 kts 115°
2026-04-29 22:16 26.71845 51.68812 38874 ft 511 kts 115°
2026-04-29 22:17 26.69588 51.76369 38872 ft 511 kts 115°
2026-04-29 22:17 26.67325 51.83909 38878 ft 511 kts 115°
2026-04-29 22:18 26.65057 51.91430 38882 ft 511 kts 115°
2026-04-29 22:18 26.62645 51.98884 38884 ft 509 kts 116°
2026-04-29 22:19 26.60193 52.06307 38884 ft 509 kts 116°
2026-04-29 22:19 26.57773 52.13695 38863 ft 509 kts 116°
2026-04-29 22:20 26.55345 52.21136 38858 ft 509 kts 116°
2026-04-29 22:20 26.52903 52.28561 38860 ft 509 kts 116°
2026-04-29 22:21 26.50464 52.35989 38859 ft 509 kts 116°
2026-04-29 22:21 26.48021 52.43409 38860 ft 509 kts 116°
2026-04-29 22:22 26.45592 52.50781 38858 ft 509 kts 116°
2026-04-29 22:22 26.43139 52.58197 38858 ft 509 kts 116°
2026-04-29 22:23 26.40686 52.65612 38857 ft 509 kts 116°
2026-04-29 22:23 26.38230 52.73020 38860 ft 509 kts 116°
2026-04-29 22:24 26.35764 52.80415 38856 ft 509 kts 116°
2026-04-29 22:24 26.33318 52.87770 38859 ft 509 kts 116°
2026-04-29 22:25 26.30853 52.95165 38860 ft 509 kts 116°
2026-04-29 22:25 26.28378 53.02568 38866 ft 509 kts 116°
2026-04-29 22:26 26.25895 53.09971 38865 ft 509 kts 116°
2026-04-29 22:26 26.23413 53.17361 38851 ft 509 kts 116°
2026-04-29 22:27 26.20925 53.24754 38856 ft 509 kts 116°
2026-04-29 22:27 26.18439 53.32121 38856 ft 508 kts 116°
2026-04-29 22:28 26.15613 53.39237 38847 ft 505 kts 120°
2026-04-29 22:28 26.12720 53.46343 38848 ft 505 kts 120°
2026-04-29 22:29 26.10290 53.52320 38851 ft 505 kts 120°
2026-04-29 22:29 26.06928 53.60578 38852 ft 504 kts 120°
2026-04-29 22:30 26.04024 53.67691 38850 ft 504 kts 120°
2026-04-29 22:30 26.01123 53.74786 38837 ft 504 kts 120°
2026-04-29 22:30 25.99684 53.78337 38533 ft 502 kts 119°
2026-04-29 22:31 25.98287 53.81899 37900 ft 503 kts 118°
2026-04-29 22:31 25.96895 53.85486 36956 ft 508 kts 118°
2026-04-29 22:31 25.95487 53.89102 35831 ft 512 kts 118°